Regional Weather Roundup
Issued by NWS

Home | Current Version | Previous Version | Text Only | Print | Product List | Glossary Off
Versions: 1 2 3 4 5 6 7 8 9 10 11 12 13 14 15 16 17 18 19 20 21 22 23 24 25 26 27

000
ASUS45 KBOU 251807
RWRCO

WEATHER ROUNDUP FOR COLORADO
NATIONAL WEATHER SERVICE DENVER/BOULDER CO
1200 PM MDT SAT MAR 25 2017

NOTE: "FAIR" INDICATES FEW OR NO CLOUDS BELOW 12000 FEET WITH NO
SIGNIFICANT WEATHER AND/OR OBSTRUCTIONS TO VISIBILITY.

COZ001>005-013-030-031-251900-
...NORTHWEST COLORADO...

CITY           SKY/WX    TMP DP  RH WIND       PRES   REMARKS
CRAIG          FAIR      57  19  22 VRB3      29.98F
HAYDEN         FAIR      52  19  28 E5        29.99F
MEEKER         FAIR      58  20  22 SW14      29.98F
MOUNT WERNER   NOT AVBL
STEAMBOAT SPGS FAIR      49  25  40 CALM      30.00F
WALDEN         NOT AVBL
$$

COZ006>008-011-251900-
...WEST CENTRAL VALLEYS...

CITY           SKY/WX    TMP DP  RH WIND       PRES   REMARKS
GRAND JUNCTION FAIR      58  29  33 SE12      29.97F
MONTROSE       FAIR      57  25  29 N7        30.02F
EAGLE          SUNNY     46  25  42 CALM      30.06F
RIFLE          FAIR      56  27  32 CALM      29.99F
DELTA          FAIR      59  26  28 CALM      30.00F
NUCLA          FAIR      54  27  35 N3        30.06F
$$

COZ017>023-064>068-251900-
...SOUTHWEST COLORADO...

CITY           SKY/WX    TMP DP  RH WIND       PRES   REMARKS
DURANGO        FAIR      53  25  33 SE7       30.09F
CORTEZ         FAIR      58  24  27 VRB7      30.05F
PAGOSA SPRINGS FAIR      51  28  42 SW3       30.12F
TELLURIDE      NOT AVBL
WOLF CREEK PAS FAIR      34  16  47 SW10      30.27F WCI  26
$$

COZ009-010-012-014-032>034-037-058>063-251900-
...CENTRAL COLORADO...

CITY           SKY/WX    TMP DP  RH WIND       PRES   REMARKS
ASPEN          FAIR      49  21  33 N7        30.03F
BUENA VISTA    FAIR      52  17  25 E5        30.06F
COPPER MTN     FAIR      41   5  22 S7        30.20F
BERTHOUD PASS  FAIR      32  23  69 W8        30.22S WCI  25
COTTONWOOD PAS FAIR      50  16  25 E7        30.13F
GUNNISON       FAIR      42  25  50 VRB6      30.11F
KREMMLING      FAIR      48  25  40 CALM      30.07F
LEADVILLE      FAIR      43   7  22 S8        30.09F
MONARCH PASS   FAIR      37   5  25 SW15      30.31F
SALIDA         FAIR      58  17  19 S10G17    30.12F
SUNLIGHT       FAIR      37  14  38 S10G22    30.17F
WILKERSON PASS FAIR      37  12  35 SW9       30.21S
$$

COZ069>075-251900-
...SAN LUIS VALLEY/SANGRE DE CRISTO MOUNTAINS...

CITY           SKY/WX    TMP DP  RH WIND       PRES   REMARKS
ALAMOSA        FAIR      47  27  45 VRB5      30.11F
LA VETA PASS   NOT AVBL
SAGUACHE       FAIR      48  23  37 S6        30.13F
$$

COZ035-036-038>040-251900-
...NORTHERN COLORADO FRONT RANGE...

CITY           SKY/WX    TMP DP  RH WIND       PRES   REMARKS
DENVER INTL AP PTSUNNY   58  25  28 S12       29.99F
DMNS CITY PARK   N/A     59  25  27 S3G13     29.97F
AURORA         NOT AVBL
FRONT RANGE AP PTSUNNY   59  28  31 SE13      30.00F
ERIE MUNI ARPT FAIR      55  30  38 N3        29.99F
BOULDER MUN AP FAIR      55  28  35 SE5       29.98F
CENTENNIAL     PTSUNNY   56  29  35 SE9       29.98F
BROOMFIELD     PTSUNNY   57  25  28 VRB5      30.00F
FORT COLLINS   FAIR      55  30  38 S6        30.00F
LONGMONT       FAIR      58  29  33 E5        30.00F
$$

COZ041-046-047-076>085-087-088-251900-
...PIKES PEAK/PALMER DIVIDE AND SOUTHERN FOOTHILLS...

CITY           SKY/WX    TMP DP  RH WIND       PRES   REMARKS
COLO. SPRINGS  PTSUNNY   51  29  42 VRB6      30.04F
A. F. ACADEMY  FAIR      50  31  47 SE10      30.03F
SCHRIEVER AFB  FAIR      49  29  45 SW10G16   30.05F
ELLICOTT         N/A    N/A N/A N/A SW7       30.03F
FALCON         FAIR      49  29  46 S6        30.06F
FORT CARSON    FAIR      53  28  39 SE6       30.02F
LIMON          FAIR      55  33  43 VRB6      30.02F
MONUMENT HILL  FAIR      43  30  61 S8        30.05F
TRINIDAD       FAIR      53  31  42 SE6       30.05F
$$

COZ042>045-048>051-090-091-251900-
...NORTHEAST COLORADO...

CITY           SKY/WX    TMP DP  RH WIND       PRES   REMARKS
GREELEY ARPT   FAIR      53  31  42 VRB5      30.01F
AKRON          FAIR      55  29  36 SW7       30.01F
BURLINGTON     FAIR      52  31  44 SW5       30.03F
WRAY           NOT AVBL
STERLING       FAIR      55  34  44 S9        29.99F
HOLYOKE        FAIR      59  34  38 S5        30.01F
FORT MORGAN    FAIR      56  31  39 SE8       30.01F
$$

COZ086-089-092>099-251900-
...SOUTHEAST COLORADO...

CITY           SKY/WX    TMP DP  RH WIND       PRES   REMARKS
PUEBLO         FAIR      53  35  50 SE8       30.02F
LA JUNTA       FAIR      54  35  48 CALM      30.03F
LAMAR          FAIR      59  30  33 W10       30.02F
SPRINGFIELD      N/A     59  26  28 VRB3      30.03F
$$




USA.gov is the U.S. government's official web portal to all federal, state and local government web resources and services.